User: anonymous   Login
Location: Home
(42.5358°N, 72.7383°W)
Time: 13:19:48
(UTC-05:00)
Language:

Explorer 7 - Orbit

View from above orbital plane
View from above orbital plane
View from above satellite
View from above satellite

Ground track
Ground track

The orbit data is extracted from the following two-line orbital elements,

1    22U 59009A   21340.14680404  .00001279  00000-0  11611-3 0  9996
2    22  50.2835 102.6372 0137770 150.3060 210.5798 14.95928945305646
Epoch (UTC): 06 December 2021 03:31:23
Eccentricity: 0.0137770
inclination: 50.2835°
perigee height: 483 km
apogee height: 675 km
right ascension of ascending node: 102.6372°
argument of perigee: 150.3060°
revolutions per day: 14.95928945
mean anomaly at epoch: 210.5798°
orbit number at epoch: 30564

The dashed part of the orbit path shows where the satellite is in the earth's shadow,  

DLR